GW6841 Weather Reports


time (UTC)temp
C
wind
direction
speed
KPH
gust
KPH
rain 1hr
cm
rain 24hr
cm
rain mn
cm
humidity
%
barometer
mb
20260502204421 22 359 17.7 24.1 0.00 0.64 0.64 42 1019.0
20260502203919 22 351 14.5 20.9 0.00 0.64 0.64 43 1019.2
20260502203416 22 336 12.9 20.9 0.00 0.64 0.64 46 1019.1
20260502202912 22 17 8.0 14.5 0.00 0.64 0.64 45 1019.0
20260502202409 22 7 9.7 22.5 0.00 0.64 0.64 46 1019.4
20260502201907 21 48 8.0 24.1 0.00 0.64 0.64 47 1019.1
20260502201403 21 53 17.7 24.1 0.00 0.64 0.64 45 1019.4
20260502200900 21 8 16.1 22.5 0.00 0.64 0.64 45 1019.3
20260502200355 21 29 17.7 22.5 0.00 0.64 0.64 46 1019.6
20260502195854 21 19 14.5 24.1 0.00 0.64 0.64 48 1019.5
20260502195350 22 72 17.7 22.5 0.00 0.64 0.64 49 1019.4
20260502194847 21 5 12.9 14.5 0.00 0.64 0.64 49 1019.5
20260502194343 21 349 14.5 22.5 0.00 0.64 0.64 49 1019.7
20260502193839 21 2 17.7 22.5 0.00 0.64 0.64 52 1019.6
20260502193337 21 7 12.9 17.7 0.00 0.64 0.64 54 1019.5
20260502192832 21 12 9.7 20.9 0.00 0.64 0.64 56 1019.6
20260502192329 21 0 12.9 17.7 0.00 0.64 0.64 54 1019.9
20260502191827 21 1 14.5 24.1 0.00 0.64 0.64 52 1019.5
20260502191325 21 344 12.9 17.7 0.00 0.64 0.64 57 1019.5
20260502190821 21 358 8.0 12.9 0.00 0.64 0.64 58 1019.7
20260502190319 21 12 17.7 22.5 0.00 0.64 0.64 54 1019.9
20260502185814 21 0 11.3 20.9 0.00 0.64 0.64 54 1019.8
20260502185310 21 17 12.9 17.7 0.00 0.64 0.64 56 1019.7
20260502184807 21 19 12.9 22.5 0.00 0.64 0.64 55 1019.8
20260502184303 21 12 11.3 16.1 0.00 0.64 0.64 56 1019.7
20260502183759 20 35 11.3 20.9 0.00 0.64 0.64 56 1019.8
20260502183256 21 329 14.5 17.7 0.00 0.64 0.64 59 1020.1
20260502182751 20 8 22.5 24.1 0.00 0.64 0.64 56 1020.0
20260502182247 20 9 14.5 22.5 0.00 0.64 0.64 60 1020.1
20260502181743 20 32 11.3 25.7 0.00 0.64 0.64 56 1020.2
20260502181243 20 19 9.7 16.1 0.00 0.64 0.64 59 1020.0
20260502180740 20 16 14.5 25.7 0.00 0.64 0.64 56 1020.4
20260502180237 20 43 11.3 16.1 0.00 0.64 0.64 59 1020.2
20260502170201 20 25 14.5 20.9 0.00 0.64 0.64 62 1020.8
20260502164148 19 56 8.0 22.5 0.00 0.64 0.64 67 1020.8
20260502163643 20 11 16.1 24.1 0.00 0.64 0.64 64 1020.7
20260502163141 19 1 9.7 14.5 0.00 0.64 0.64 69 1020.4
20260502162638 18 332 14.5 20.9 0.00 0.64 0.64 67 1020.6
20260502162135 18 348 16.1 22.5 0.00 0.64 0.64 68 1020.4
20260502161632 18 353 12.9 20.9 0.00 0.64 0.64 69 1020.7
20260502161129 18 2 17.7 20.9 0.00 0.64 0.64 71 1020.6
20260502160626 18 5 8.0 16.1 0.00 0.64 0.64 73 1020.9
20260502160125 18 9 14.5 22.5 0.00 0.64 0.64 70 1020.8
20260502152039 17 12 12.9 16.1 0.00 0.64 0.64 77 1020.4
20260502151536 17 2 11.3 17.7 0.00 0.64 0.64 76 1020.5
20260502151033 17 13 6.4 12.9 0.00 0.64 0.64 79 1020.5
20260502150531 16 15 14.5 20.9 0.00 0.64 0.64 80 1020.4
20260502130416 13 17 9.7 14.5 0.00 0.64 0.64 92 1019.1
20260502123358 12 356 8.0 11.3 0.00 0.64 0.64 95 1018.6
20260502122856 12 350 4.8 6.4 0.00 0.64 0.64 95 1018.7
20260502122351 12 6 3.2 6.4 0.00 0.64 0.64 95 1018.4
20260502121850 12 3 8.0 9.7 0.00 0.64 0.64 95 1018.4
20260502121347 12 0 4.8 12.9 0.00 0.64 0.64 95 1018.5
20260502120844 12 27 6.4 6.4 0.00 0.64 0.64 95 1018.2
20260502120340 12 27 8.0 9.7 0.00 0.64 0.64 95 1017.9
20260502115838 12 2 6.4 11.3 0.00 0.64 0.64 95 1018.2
20260502115335 12 11 6.4 9.7 0.00 0.64 0.64 95 1018.1
20260502114831 12 20 4.8 4.8 0.00 0.64 0.64 95 1017.8
20260502114328 11 357 6.4 9.7 0.00 0.64 0.64 95 1017.6
20260502113825 11 15 0.0 0.0 0.00 0.64 0.64 95 1017.4
20260502113323 11 7 1.6 3.2 0.00 0.64 0.64 95 1017.8
20260502112821 11 18 1.6 1.6 0.00 0.64 0.64 95 1017.4
20260502112318 11 16 1.6 1.6 0.00 0.64 0.64 95 1017.5
20260502111815 11 17 1.6 3.2 0.00 0.64 0.64 94 1017.7
20260502111313 11 9 3.2 3.2 0.00 0.64 0.64 94 1017.4
20260502110810 11 9 1.6 3.2 0.00 0.64 0.64 94 1017.3
20260502110308 11 110 3.2 3.2 0.00 0.64 0.64 94 1017.3
20260502105806 11 4 3.2 4.8 0.00 0.64 0.64 94 1017.0
20260502105301 11 21 1.6 3.2 0.00 0.64 0.64 94 1017.4
20260502104800 11 39 3.2 6.4 0.00 0.64 0.64 94 1017.3
20260502104256 11 7 0.0 3.2 0.00 0.64 0.64 94 1017.2
20260502103754 11 11 3.2 6.4 0.00 0.64 0.64 94 1017.2
20260502103251 11 14 8.0 16.1 0.00 0.64 0.64 94 1017.1
20260502102748 11 4 4.8 6.4 0.00 0.64 0.64 94 1017.3
20260502102244 12 16 3.2 4.8 0.00 0.64 0.64 94 1017.4
20260502101743 12 8 3.2 9.7 0.00 0.64 0.64 94 1017.2
20260502101241 12 0 8.0 9.7 0.00 0.64 0.64 94 1017.3
20260502100738 12 17 4.8 11.3 0.00 0.64 0.64 94 1017.1
20260502100237 11 22 3.2 6.4 0.00 0.64 0.64 94 1017.0
20260502091211 12 5 14.5 20.9 0.00 0.64 0.64 95 1016.6
20260502090709 12 20 9.7 12.9 0.00 0.64 0.64 96 1016.4
20260502090205 12 352 14.5 25.7 0.00 0.64 0.64 96 1016.6
20260502071107 12 12 6.4 11.3 0.00 0.61 0.61 98 1016.4
20260502070605 12 16 11.3 14.5 0.13 0.61 0.61 98 1016.5
20260502065600 12 342 9.7 11.3 0.00 0.58 0.58 98 1016.6
20260502065058 12 3 6.4 11.3 0.00 0.58 0.58 98 1016.5
20260502064556 12 26 6.4 9.7 0.18 0.58 0.58 98 1016.4
20260502064053 12 350 6.4 9.7 0.18 0.58 0.58 98 1016.6
20260502063551 12 25 1.6 11.3 0.30 0.56 0.56 98 1016.5
20260502063049 12 42 4.8 9.7 0.79 0.53 0.53 98 1016.9
20260502062545 12 22 4.8 9.7 0.79 0.51 0.51 98 1016.8
20260502062043 12 68 6.4 6.4 0.30 0.41 0.41 98 1016.9
20260502061541 12 29 4.8 6.4 0.30 0.38 0.38 98 1017.0
20260502061038 12 0 3.2 11.3 0.48 0.36 0.36 98 1016.6
20260502060533 12 8 6.4 11.3 0.71 0.33 0.33 98 1016.1
20260502060030 12 11 3.2 4.8 0.79 0.25 0.25 98 1016.0
20260502055528 12 20 3.2 12.9 0.48 0.20 0.20 98 1016.1
20260502055026 12 25 6.4 12.9 0.18 0.13 0.13 97 1016.2
20260502054525 12 15 4.8 11.3 0.18 0.13 0.13 98 1016.1
20260502054021 12 15 6.4 12.9 0.13 0.10 0.10 97 1015.8
20260502053518 12 45 6.4 12.9 0.30 0.10 0.10 97 1015.6
20260502053016 12 355 3.2 12.9 0.18 0.08 0.08 98 1015.6
20260502052514 12 11 8.0 11.3 0.13 0.05 0.05 97 1016.0
20260502052012 12 11 6.4 12.9 0.13 0.05 0.05 97 1016.8
20260502051510 12 29 6.4 9.7 0.00 0.03 0.03 97 1016.7
20260502051007 12 25 6.4 14.5 0.18 0.03 0.03 97 1016.6
20260502050503 12 11 4.8 11.3 0.18 0.03 0.03 97 1016.5
20260502050000 12 4 9.7 16.1 0.30 7.90 7.90 97 1016.7
20260502045457 12 27 9.7 12.9 0.61 7.90 7.90 97 1016.2
20260502044954 12 336 9.7 14.5 0.36 7.82 7.82 97 1016.3
20260502044450 12 352 8.0 16.1 0.48 7.80 7.80 97 1016.2
20260502043947 12 15 9.7 17.7 0.18 7.75 7.75 97 1016.1
20260502043445 12 1 8.0 12.9 0.30 7.72 7.72 97 1016.6
20260502042944 13 355 4.8 9.7 0.18 7.70 7.70 96 1016.5
20260502042441 13 19 9.7 14.5 0.13 7.67 7.67 96 1016.1
20260502041938 13 3 9.7 12.9 0.13 7.67 7.67 96 1015.9
20260502041436 13 11 12.9 14.5 0.00 7.65 7.65 96 1016.0
20260502040933 13 4 4.8 11.3 0.00 7.65 7.65 96 1016.0
20260502040430 13 10 8.0 12.9 0.00 7.65 7.65 96 1016.1
20260502035926 13 7 8.0 12.9 0.00 7.65 7.65 96 1016.3
20260502035422 13 357 4.8 12.9 0.00 7.65 7.65 96 1015.9
20260502034921 13 39 8.0 14.5 0.00 7.65 7.65 96 1016.1
20260502034419 13 356 14.5 22.5 0.00 7.65 7.65 96 1016.0
20260502033917 13 11 3.2 9.7 0.00 7.65 7.65 96 1015.6
20260502033414 13 17 4.8 9.7 0.00 7.65 7.65 96 1015.5
20260502032910 13 11 9.7 12.9 0.00 7.65 7.65 96 1015.4
20260502032407 13 27 6.4 20.9 0.00 7.65 7.65 96 1015.4
20260502031904 13 20 4.8 9.7 0.00 7.65 7.65 96 1015.7
20260502031402 13 7 4.8 6.4 0.00 7.65 7.65 96 1015.8
20260502030900 13 17 6.4 12.9 0.00 7.65 7.65 96 1015.6
20260502030358 13 16 6.4 22.5 0.00 7.65 7.65 96 1015.5
20260502025856 13 2 3.2 6.4 0.00 7.65 7.65 97 1015.7
20260502025353 13 84 9.7 14.5 0.00 7.65 7.65 97 1015.3
20260502024851 13 356 4.8 6.4 0.00 7.65 7.65 97 1015.4
20260502024348 13 5 3.2 16.1 0.00 7.65 7.65 97 1015.4
20260502023846 13 351 6.4 14.5 0.00 7.65 7.65 97 1015.7
20260502023343 13 52 1.6 16.1 0.00 7.65 7.65 97 1015.7
20260502022841 13 5 8.0 14.5 0.00 7.65 7.65 97 1015.2
20260502022337 13 16 11.3 12.9 0.00 7.65 7.65 97 1015.4
20260502021834 13 317 4.8 12.9 0.00 7.65 7.65 97 1015.2
20260502021331 13 27 4.8 14.5 0.00 7.65 7.65 97 1014.9
20260502020829 13 358 4.8 14.5 0.00 7.65 7.65 97 1015.3
20260502020326 13 23 3.2 9.7 0.00 7.65 7.65 98 1015.2
20260502015823 13 27 6.4 16.1 0.00 7.65 7.65 98 1015.2
20260502015320 13 42 11.3 16.1 0.00 7.65 7.65 98 1014.8
20260502014817 13 44 16.1 20.9 0.00 7.65 7.65 98 1014.6
20260502014314 13 19 1.6 16.1 0.00 7.65 7.65 98 1014.6
20260502013810 13 25 4.8 20.9 0.00 7.65 7.65 98 1014.4
20260502013306 13 35 1.6 3.2 0.00 7.65 7.65 98 1014.1
20260502012803 13 347 4.8 12.9 0.00 7.65 7.65 98 1014.1
20260502012300 13 3 3.2 11.3 0.00 7.65 7.65 98 1013.8
20260502011758 13 14 4.8 12.9 0.00 7.65 7.65 98 1013.3
20260502011254 13 37 8.0 11.3 0.00 7.65 7.65 98 1013.4
20260502010751 13 34 3.2 6.4 0.00 7.65 7.65 98 1013.1
20260502010247 13 28 3.2 9.7 0.00 7.65 7.65 98 1013.1
20260502005744 13 357 6.4 12.9 0.00 7.65 7.65 98 1012.9
20260502005242 13 31 8.0 16.1 0.00 7.65 7.65 98 1012.3
20260502004739 13 16 9.7 16.1 0.00 7.65 7.65 98 1011.9
20260502004235 13 41 8.0 12.9 0.00 7.65 7.65 99 1011.8
20260502003733 13 19 8.0 24.1 0.00 7.65 7.65 98 1011.4
20260502003230 13 24 6.4 12.9 0.00 7.65 7.65 99 1011.3
20260502002726 13 4 9.7 24.1 0.18 7.65 7.65 98 1011.7
20260502002224 13 14 3.2 9.7 0.30 7.65 7.65 98 1011.8
20260502001721 13 27 3.2 14.5 0.30 7.62 7.62 98 1012.7
20260502001219 13 41 3.2 6.4 0.30 7.62 7.62 98 1013.3
20260502000716 13 54 1.6 6.4 0.61 7.57 7.57 98 1013.7
20260502000214 13 29 8.0 12.9 0.79 7.54 7.54 98 1013.3
20260501235709 13 1 6.4 14.5 0.89 7.47 7.47 98 1013.1
20260501235205 13 17 4.8 16.1 0.89 7.42 7.42 98 1013.9
20260501234701 13 121 3.2 6.4 0.61 7.32 7.32 98 1013.9
20260501234159 13 46 6.4 11.3 0.61 7.26 7.26 98 1013.8
20260501233657 13 196 0.0 4.8 1.07 7.21 7.21 98 1014.0
20260501233153 13 16 1.6 1.6 1.37 7.14 7.14 98 1014.2
20260501232649 13 8 1.6 1.6 2.39 7.01 7.01 98 1014.3
20260501232147 13 278 1.6 4.8 1.98 6.86 6.86 98 1014.4
20260501231645 13 348 1.6 1.6 0.79 6.60 6.60 98 1014.3
20260501231143 13 0 6.4 11.3 0.48 6.53 6.53 98 1013.8
20260501230641 13 40 3.2 14.5 0.48 6.48 6.48 98 1013.3
20260501230139 13 356 6.4 11.3 0.43 6.45 6.45 98 1012.9
20260501225636 13 46 3.2 11.3 0.30 6.40 6.40 98 1012.6
20260501225132 14 10 9.7 12.9 0.48 6.38 6.38 98 1012.8
20260501224629 14 3 8.0 11.3 0.48 6.32 6.32 98 1013.7
20260501224126 14 13 4.8 11.3 0.18 6.27 6.27 98 1014.2
20260501223623 14 275 4.8 12.9 0.00 6.25 6.25 98 1014.0
20260501223120 14 91 6.4 12.9 0.00 6.25 6.25 98 1014.4
20260501222615 14 331 9.7 17.7 0.13 6.25 6.25 98 1014.4
20260501222113 14 58 11.3 14.5 0.00 6.22 6.22 99 1013.8
20260501221609 14 45 9.7 12.9 0.00 6.22 6.22 99 1013.7
20260501221107 14 333 9.7 11.3 0.36 6.22 6.22 99 1013.6
20260501220604 14 30 4.8 11.3 0.79 6.22 6.22 99 1013.7
20260501220101 14 26 3.2 9.7 0.89 6.17 6.17 99 1013.4
20260501215558 14 20 6.4 11.3 0.79 6.10 6.10 99 1013.8
20260501215053 14 37 3.2 4.8 0.18 5.99 5.99 99 1013.9
20260501214548 14 13 1.6 3.2 0.00 5.97 5.97 99 1014.1
20260501214044 14 354 4.8 9.7 0.13 5.97 5.97 99 1013.7
20260501213541 14 347 4.8 4.8 0.30 5.97 5.97 99 1013.1
20260501213037 14 6 6.4 9.7 0.30 5.94 5.94 99 1012.8
20260501212534 14 1 6.4 16.1 0.36 5.89 5.89 99 1013.0
20260501212031 14 22 1.6 9.7 0.30 5.87 5.87 99 1013.7
20260501211527 14 91 3.2 6.4 0.43 5.84 5.84 99 1013.7
20260501211026 14 141 4.8 6.4 0.89 5.82 5.82 99 1013.8
20260501210521 14 285 1.6 4.8 1.19 5.77 5.77 99 1013.6
20260501210018 14 16 3.2 4.8 0.89 5.64 5.64 99 1014.0
20260501205515 14 139 4.8 4.8 0.66 5.56 5.56 99 1014.5
20260501205013 14 165 1.6 6.4 0.48 5.49 5.49 99 1014.1